Location: Avenches
(46.8809°N, 7.0410°E)
Time: 08:32:54
(UTC+00:00)

ARGOS - Pass Details

Date: 30 March 2020
Orbit: 820 x 834 km, 98.5° (Epoch: 01 June)

Event Time Altitude Azimuth Distance (km) Brightness Sun altitude
Rises 19:07:51 0° 165° (SSE) 3,364 6.0 -12.3°
Reaches altitude 10° 19:10:12 10° 166° (SSE) 2,432 5.3 -12.6°
Maximum altitude 19:15:36 87° 254° (WSW) 838 3.2 -13.5°
Drops below altitude 10° 19:21:02 10° 345° (NNW) 2,441 6.1 -14.4°
Sets 19:23:24 0° 346° (NNW) 3,377 6.9 -14.7°
